TimeCST,TemperatureF,Dew PointF,Humidity,Sea Level PressureIn,VisibilityMPH,Wind Direction,Wind SpeedMPH,Gust SpeedMPH,PrecipitationIn,Events,Conditions,WindDirDegrees,DateUTC
12:53 AM,19.0,12.0,74,29.98,10.0,NNE,4.6,-,N/A,,Overcast,20,2013-01-31 06:53:00
1:06 AM,19.4,12.2,74,29.88,10.0,NNE,6.9,-,N/A,,Overcast,20,2013-01-31 07:06:00
1:53 AM,16.0,10.9,81,29.99,10.0,North,6.9,-,N/A,,Overcast,10,2013-01-31 07:53:00
2:53 AM,14.0,10.0,84,30.03,10.0,North,5.8,-,N/A,,Overcast,360,2013-01-31 08:53:00
3:53 AM,15.1,10.0,80,30.04,10.0,NNW,6.9,-,N/A,,Overcast,340,2013-01-31 09:53:00
4:53 AM,15.1,10.9,84,30.05,10.0,NNW,6.9,-,N/A,,Overcast,330,2013-01-31 10:53:00
5:53 AM,14.0,10.0,84,30.08,10.0,North,8.1,-,N/A,,Overcast,360,2013-01-31 11:53:00
6:53 AM,12.9,8.1,81,30.12,10.0,North,11.5,-,N/A,,Overcast,360,2013-01-31 12:53:00
7:13 AM,12.2,8.6,85,30.03,10.0,North,15.0,-,N/A,,Overcast,360,2013-01-31 13:13:00
7:53 AM,10.9,6.1,81,30.19,10.0,North,13.8,-,N/A,,Overcast,350,2013-01-31 13:53:00
8:34 AM,6.8,1.4,79,30.11,5.0,NNE,12.7,-,N/A,,Haze,20,2013-01-31 14:34:00
8:53 AM,8.1,-0.0,70,30.27,10.0,NNW,20.7,27.6,N/A,,Overcast,340,2013-01-31 14:53:00
9:53 AM,9.0,-0.0,67,30.30,10.0,NNW,24.2,38.0,N/A,,Partly Cloudy,330,2013-01-31 15:53:00
10:53 AM,10.0,-0.9,61,30.35,10.0,NNW,21.9,32.2,N/A,,Clear,330,2013-01-31 16:53:00
11:53 AM,10.9,-2.0,56,30.36,10.0,North,23.0,31.1,N/A,,Clear,350,2013-01-31 17:53:00
12:53 PM,12.0,-2.0,53,30.36,10.0,NNW,23.0,29.9,N/A,,Clear,330,2013-01-31 18:53:00
1:53 PM,10.9,-2.9,54,30.37,10.0,NW,21.9,29.9,N/A,,Clear,320,2013-01-31 19:53:00
2:53 PM,10.9,-4.0,51,30.38,10.0,NNW,20.7,29.9,N/A,,Clear,330,2013-01-31 20:53:00
3:53 PM,12.0,-4.0,49,30.38,10.0,NW,18.4,-,N/A,,Scattered Clouds,310,2013-01-31 21:53:00
4:53 PM,10.0,-4.0,53,30.39,10.0,NNW,12.7,-,N/A,,Partly Cloudy,340,2013-01-31 22:53:00
5:53 PM,8.1,-4.0,58,30.39,10.0,NNW,8.1,-,N/A,,Partly Cloudy,330,2013-01-31 23:53:00
6:53 PM,3.9,-4.0,70,30.40,10.0,NNW,4.6,-,N/A,,Clear,340,2013-02-01 00:53:00
7:53 PM,3.9,-4.0,70,30.41,10.0,Calm,Calm,-,N/A,,Clear,0,2013-02-01 01:53:00
8:53 PM,3.0,-2.9,76,30.43,10.0,NE,3.5,-,N/A,,Mostly Cloudy,40,2013-02-01 02:53:00
9:53 PM,6.1,-0.9,73,30.43,10.0,Calm,Calm,-,N/A,,Overcast,0,2013-02-01 03:53:00
10:53 PM,9.0,-0.0,67,30.41,10.0,South,5.8,-,N/A,,Overcast,180,2013-02-01 04:53:00
11:53 PM,8.6,-0.4,67,30.24,10.0,South,4.6,-,N/A,,Overcast,190,2013-02-01 05:53:00